TimeEDT,TemperatureF,Dew PointF,Humidity,Sea Level PressureIn,VisibilityMPH,Wind Direction,Wind SpeedMPH,Gust SpeedMPH,PrecipitationIn,Events,Conditions,WindDirDegrees,DateUTC
12:56 AM,34.9,32.9,92,29.82,10.0,West,6.9,-,N/A,,Clear,270,2013-10-24 04:56:00
1:56 AM,34.0,32.0,92,29.82,10.0,West,5.8,-,N/A,,Clear,280,2013-10-24 05:56:00
2:56 AM,34.0,32.0,92,29.83,10.0,West,4.6,-,N/A,,Mostly Cloudy,280,2013-10-24 06:56:00
3:56 AM,32.9,30.0,89,29.82,10.0,West,9.2,-,N/A,,Clear,260,2013-10-24 07:56:00
4:56 AM,32.9,30.0,89,29.84,10.0,SW,4.6,-,N/A,,Clear,220,2013-10-24 08:56:00
5:56 AM,32.0,29.1,89,29.85,10.0,SSW,8.1,-,N/A,,Clear,210,2013-10-24 09:56:00
6:56 AM,32.0,30.0,92,29.87,10.0,SSW,6.9,-,N/A,,Partly Cloudy,210,2013-10-24 10:56:00
7:56 AM,32.0,29.1,89,29.88,10.0,Calm,Calm,-,N/A,,Partly Cloudy,0,2013-10-24 11:56:00
8:56 AM,36.9,30.0,76,29.89,10.0,WSW,9.2,-,N/A,,Clear,250,2013-10-24 12:56:00
9:56 AM,41.0,32.9,73,29.90,10.0,West,12.7,18.4,N/A,,Mostly Cloudy,270,2013-10-24 13:56:00
10:56 AM,41.9,32.0,68,29.89,10.0,West,13.8,-,N/A,,Mostly Cloudy,270,2013-10-24 14:56:00
11:56 AM,41.9,30.0,63,29.89,10.0,West,15.0,24.2,N/A,,Mostly Cloudy,280,2013-10-24 15:56:00
12:56 PM,45.0,29.1,54,29.88,10.0,WNW,13.8,21.9,N/A,,Mostly Cloudy,290,2013-10-24 16:56:00
1:56 PM,45.9,28.0,50,29.88,10.0,West,17.3,-,N/A,,Mostly Cloudy,270,2013-10-24 17:56:00
2:56 PM,45.0,27.1,50,29.89,10.0,West,18.4,-,N/A,,Mostly Cloudy,270,2013-10-24 18:56:00
3:56 PM,45.0,27.1,50,29.90,10.0,West,17.3,28.8,N/A,,Mostly Cloudy,260,2013-10-24 19:56:00
4:56 PM,46.9,26.1,44,29.91,10.0,West,17.3,-,N/A,,Mostly Cloudy,270,2013-10-24 20:56:00
5:56 PM,43.9,27.1,52,29.93,10.0,West,11.5,-,N/A,,Mostly Cloudy,260,2013-10-24 21:56:00
6:56 PM,41.9,28.0,58,29.95,10.0,West,11.5,-,N/A,,Mostly Cloudy,270,2013-10-24 22:56:00
7:56 PM,41.9,29.1,61,29.97,10.0,West,12.7,-,N/A,,Overcast,270,2013-10-24 23:56:00
8:56 PM,41.0,30.0,65,29.98,10.0,West,10.4,-,N/A,,Mostly Cloudy,270,2013-10-25 00:56:00
9:56 PM,41.0,31.1,68,29.99,10.0,WNW,13.8,-,N/A,,Overcast,290,2013-10-25 01:56:00
10:56 PM,38.8,34.0,83,30.00,10.0,WNW,13.8,-,0.00,Rain,Light Rain,290,2013-10-25 02:56:00
11:56 PM,38.8,34.0,83,30.01,10.0,NW,11.5,-,0.00,,Overcast,310,2013-10-25 03:56:00